Flag for U.S.A. Weather past 2 weeks in Babylon, New York, U.S.A.

Now
73 °F

Cloudy.


Feels Like: 75 °F
Forecast: 63 / 75 °F
Wind: 14 mph from Southwest

Location: Republic Airport

Current Time: Aug 30, 2014 at 4:24:33 PM

Latest Report: Aug 30, 2014 at 3:53 PM


Visibility: 10 mi

Pressure: 30.20 "Hg

Humidity: 69%

Dew point: 62 °F

Location of BabylonLocation

Historic Weather in Babylon — Graph

°F

Babylon temperature yesterday

Maximum temperature yesterday: 75 °F (at 1:53 PM)
Minimum temperature yesterday: 60 °F (at 5:53 AM)
Average temperature yesterday: 67 °F

Past Weeks' High & Low Weather Summary

 TemperatureHumidityPressure
High85 °F (Aug 25, 4:53 PM)97% (Aug 20, 6:53 AM)30.28 "Hg (Aug 20, 6:53 AM)
Low59 °F (Aug 24, 4:53 AM)37% (Aug 28, 4:53 PM)29.81 "Hg (Aug 17, 3:53 PM)
Average70 °F69%30.02 "Hg
* Reported Aug 15 3:53 PM — Aug 30 2:53 PM, Babylon, Weather by CustomWeather, © 2014

Note: Actual official high and low records may vary slightly from our data, if they occured in-between our weather recording intervals... More about our weather records

Advertising

Babylon weather history for previous 24 hours

 ConditionsComfort  
Time TempWeatherWind HumidityBarometerVisibility
2:53 PM
Aug 30
74 °FBroken clouds.13 mph67%30.22 "Hg10 mi
1:53 PM73 °FMostly cloudy.12 mph64%30.24 "Hg10 mi
12:53 PM75 °FScattered clouds.10 mph58%30.24 "Hg10 mi
11:53 AM75 °FPartly sunny.12 mph55%30.25 "Hg10 mi
10:53 AM74 °FPartly sunny.12 mph57%30.27 "Hg10 mi
9:53 AM72 °FScattered clouds.7 mph64%30.27 "Hg10 mi
8:53 AM70 °FPartly sunny.9 mph64%30.27 "Hg10 mi
7:53 AM65 °FPassing clouds.No wind81%30.28 "Hg10 mi
6:53 AM63 °FOvercast.No wind84%30.27 "Hg10 mi
5:53 AM60 °FPassing clouds.3 mph83%30.27 "Hg10 mi
4:53 AM59 °FPassing clouds.3 mph87%30.26 "Hg10 mi
3:53 AM60 °FPartly cloudy.5 mph86%30.26 "Hg10 mi
2:53 AM60 °FPassing clouds.3 mph83%30.26 "Hg10 mi
1:53 AM61 °FClear.No wind81%30.26 "Hg10 mi
12:53 AM60 °FClear.3 mph80%30.27 "Hg10 mi
11:53 PM
Aug 29
62 °FClear.5 mph78%30.26 "Hg10 mi
10:53 PM63 °FClear.No wind73%30.25 "Hg10 mi
9:53 PM65 °FClear.5 mph70%30.24 "Hg10 mi
8:53 PM66 °FClear.3 mph68%30.24 "Hg10 mi
7:53 PM67 °FSunny.6 mph63%30.22 "Hg10 mi
6:53 PM68 °FSunny.9 mph57%30.20 "Hg10 mi
5:53 PM70 °FSunny.13 mph59%30.20 "Hg10 mi
4:53 PM72 °FSunny.8 mph55%30.19 "Hg10 mi
Weather by CustomWeather, © 2014

See weather overviewHow to use our weather pages